Simultaneous Nadir Overpasses (SNOs) Predictions

Prediction of SNOs between NOAA-20 and PACE Satellite Orbit:

Table of predicted SNOs for the next 14.0 days since TLE Epoch: 4/27/2024
Index Date (NOAA-20) Time (NOAA-20) Lat,Lon (NOAA-20) SZA (NOAA-20 ) Date (PACE) Time (PACE) Lat,Lon (PACE) SZA (PACE ) Distance(km) Time Diff (sec)
1 04/27/2024 20:35:06 -80.12, 11.60 111.82 04/27/2024 20:35:40 -80.11, 11.71 111.85 2.12 34
2 04/27/2024 21:25:43 79.89,-178.74 67.74 04/27/2024 21:24:44 79.89,-178.80 67.77 1.15 59
3 04/30/2024 01:01:27 -80.06, -54.43 112.60 04/30/2024 01:02:00 -80.06, -54.44 112.62 0.32 33
4 04/30/2024 01:52:07 79.92, 114.31 67.12 04/30/2024 01:51:06 79.91, 114.45 67.13 2.94 61
5 05/02/2024 05:27:49 -80.05,-120.84 113.30 05/02/2024 05:28:20 -80.04,-120.89 113.31 0.94 31
6 05/02/2024 06:18:29 79.90, 47.88 66.43 05/02/2024 06:17:26 79.90, 47.96 66.45 1.72 63
7 05/04/2024 09:54:12 -80.06, 172.38 113.90 05/04/2024 09:54:40 -80.06, 172.36 113.91 0.54 28
8 05/04/2024 10:44:51 79.89, -18.61 65.78 05/04/2024 10:43:45 79.89, -18.53 65.79 1.71 66
9 05/06/2024 14:20:34 -80.06, 105.84 114.53 05/06/2024 14:20:58 -80.05, 105.88 114.55 1.07 24
10 05/06/2024 15:11:14 79.92, -85.46 65.21 05/06/2024 15:10:04 79.91, -85.32 65.22 2.88 70
11 05/08/2024 18:46:54 -80.00, 39.82 115.23 05/08/2024 18:47:14 -80.01, 39.69 115.22 2.65 20
12 05/08/2024 19:37:05 78.88,-143.78 62.90 05/08/2024 19:35:52 78.76,-144.46 62.89 20.00 73



Historial Predications of SNOs between NOAA-20 and PACE
